Location: Newark
(45.5000°N, 11.4167°E)
Time: 18:35:52
(UTC+00:00)

A-11 Canister half - Pass Details

Date: 19 August 2019
Orbit: 1514 x 1686 km, 47.2° (Epoch: 18 October)

Event Time Altitude Azimuth Distance (km) Brightness Sun altitude
Rises 01:48:57 0° 292° (WNW) 4,871 11.4 -22.4°
Reaches altitude 10° 01:52:47 10° 280° (W) 3,904 10.8 -22.0°
Enters shadow 01:55:55 18° 264° (W) 3,288 10.3 -21.6°
Maximum altitude 02:00:17 25° 230° (SW) 2,924 - -21.1°
Drops below altitude 10° 02:07:53 10° 181° (S) 3,940 - -20.2°
Exits shadow 02:09:51 - 174° (S) 4,414 11.0 -19.9°
Sets 02:11:50 0° 169° (S) 4,925 11.3 -19.7°
